26-12-2022, 00:00:08,    204,    1.5,    6.8,   0.00,   0.00, 1003.6,   99.0, -999.0
26-12-2022, 00:00:18,    193,    1.4,    6.8,   0.00,   0.00, 1003.6,   99.0, -999.0
26-12-2022, 00:00:28,    138,    0.9,    6.8,   0.00,   0.00, 1003.6,   99.0, -999.0
26-12-2022, 00:00:38,    185,    1.0,    6.8,   0.00,   0.00, 1003.6,   99.0, -999.0
26-12-2022, 00:00:48,    167,    1.3,    6.8,   0.00,   0.00, 1003.6,   99.1, -999.0
26-12-2022, 00:00:58,    166,    0.1,    6.7,   0.00,   0.00, 1003.6,   98.8, -999.0
26-12-2022, 00:01:08,    166,    0.2,    6.7,   0.00,   0.00, 1003.6,   98.8, -999.0
26-12-2022, 00:01:18,    166,    0.0,    6.6,   0.00,   0.00, 1003.4,   98.6, -999.0
26-12-2022, 00:01:28,    166,    0.1,    6.7,   0.00,   0.00, 1003.6,   98.8, -999.0
26-12-2022, 00:01:38,    166,    0.0,    6.6,   0.00,   0.00, 1003.5,   98.6, -999.0
26-12-2022, 00:01:48,    170,    0.5,    6.6,   0.00,   0.00, 1003.6,   98.9, -999.0
26-12-2022, 00:01:58,    172,    0.8,    6.7,   0.00,   0.00, 1003.7,   98.9, -999.0
26-12-2022, 00:02:08,    171,    0.2,    6.8,   0.00,   0.00, 1003.6,   98.8, -999.0
26-12-2022, 00:02:18,    192,    1.8,    6.6,   0.00,   0.00, 1003.7,   98.9, -999.0
26-12-2022, 00:02:28,    192,    0.6,    6.7,   0.00,   0.00, 1003.7,   99.0, -999.0
26-12-2022, 00:02:38,    192,    0.5,    6.7,   0.00,   0.00, 1003.7,   98.9, -999.0
26-12-2022, 00:02:48,    191,    0.1,    6.6,   0.00,   0.00, 1003.6,   98.6, -999.0
26-12-2022, 00:02:58,    193,    0.3,    6.6,   0.00,   0.00, 1003.7,   98.9, -999.0
26-12-2022, 00:03:08,    215,    1.7,    6.7,   0.00,   0.00, 1003.7,   99.0, -999.0
26-12-2022, 00:03:18,    206,    1.3,    6.7,   0.00,   0.00, 1003.7,   99.0, -999.0
26-12-2022, 00:03:28,    155,    2.0,    6.7,   0.00,   0.00, 1003.7,   99.0, -999.0
26-12-2022, 00:03:38,    202,    0.8,    6.6,   0.00,   0.00, 1003.7,   98.9, -999.0
26-12-2022, 00:03:48,    162,    0.6,    6.7,   0.00,   0.00, 1003.7,   98.9, -999.0
26-12-2022, 00:03:58,    154,    3.4,    6.7,   0.00,   0.00, 1003.7,   99.0, -999.0
26-12-2022, 00:04:08,    202,    1.3,    6.7,   0.00,   0.00, 1003.7,   99.0, -999.0
26-12-2022, 00:04:18,    202,    1.7,    6.8,   0.00,   0.00, 1003.7,   99.0, -999.0
26-12-2022, 00:04:28,    192,    1.0,    6.7,   0.00,   0.00, 1003.7,   99.0, -999.0
26-12-2022, 00:04:38,    192,    0.7,    6.7,   0.00,   0.00, 1003.7,   99.0, -999.0
26-12-2022, 00:04:47,    193,    0.4,    6.7,   0.00,   0.00, 1003.7,   98.9, -999.0
26-12-2022, 00:04:58,    193,    0.7,    6.7,   0.00,   0.00, 1003.7,   99.0, -999.0
26-12-2022, 00:05:08,    135,    1.4,    6.7,   0.00,   0.00, 1003.7,   99.0, -999.0
26-12-2022, 00:05:17,    165,    1.3,    6.7,   0.00,   0.00, 1003.7,   99.0, -999.0
26-12-2022, 00:05:28,    206,    3.2,    6.7,   0.00,   0.00, 1003.7,   99.0, -999.0
26-12-2022, 00:05:38,    148,    0.8,    6.8,   0.00,   0.00, 1003.7,   99.0, -999.0
26-12-2022, 00:05:48,    195,    0.9,    6.7,   0.00,   0.00, 1003.7,   99.0, -999.0
26-12-2022, 00:05:57,    196,    0.3,    6.7,   0.00,   0.00, 1003.6,   98.8, -999.0
26-12-2022, 00:06:08,    187,    0.5,    6.7,   0.00,   0.00, 1003.6,   98.9, -999.0
26-12-2022, 00:06:18,    188,    0.7,    6.7,   0.00,   0.00, 1003.7,   99.0, -999.0
26-12-2022, 00:06:27,    186,    1.1,    6.7,   0.00,   0.00, 1003.7,   99.0, -999.0
26-12-2022, 00:06:37,    185,    0.2,    6.7,   0.00,   0.00, 1003.6,   98.8, -999.0
26-12-2022, 00:06:48,    186,    0.2,    6.6,   0.00,   0.00, 1003.5,   98.8, -999.0
26-12-2022, 00:06:57,    207,    1.4,    6.7,   0.00,   0.00, 1003.6,   99.0, -999.0
26-12-2022, 00:07:07,    208,    0.7,    6.7,   0.00,   0.00, 1003.6,   99.0, -999.0
26-12-2022, 00:07:18,    206,    1.5,    6.6,   0.00,   0.00, 1003.7,   99.0, -999.0
26-12-2022, 00:07:28,    225,    1.6,    6.7,   0.00,   0.00, 1003.7,   99.0, -999.0
26-12-2022, 00:07:37,    209,    3.1,    6.6,   0.00,   0.00, 1003.6,   99.0, -999.0
26-12-2022, 00:07:47,    218,    1.0,    6.7,   0.00,   0.00, 1003.6,   98.9, -999.0
26-12-2022, 00:07:58,    158,    1.8,    6.7,   0.00,   0.00, 1003.7,   99.1, -999.0
26-12-2022, 00:08:07,    165,    0.3,    6.7,   0.00,   0.00, 1003.6,   98.9, -999.0
26-12-2022, 00:08:17,    169,    0.0,    6.6,   0.00,   0.00, 1003.5,   98.6, -999.0
26-12-2022, 00:08:27,    174,    0.5,    6.6,   0.00,   0.00, 1003.6,   98.9, -999.0
26-12-2022, 00:08:37,    173,    0.3,    6.7,   0.00,   0.00, 1003.6,   99.0, -999.0
26-12-2022, 00:08:47,    184,    0.3,    6.6,   0.00,   0.00, 1003.6,   98.7, -999.0
26-12-2022, 00:08:57,    182,    1.0,    6.7,   0.00,   0.00, 1003.7,   99.0, -999.0
26-12-2022, 00:09:07,    205,    0.5,    6.6,   0.00,   0.00, 1003.6,   98.8, -999.0
26-12-2022, 00:09:17,    144,    1.9,    6.6,   0.00,   0.00, 1003.6,   99.0, -999.0
26-12-2022, 00:09:27,    144,    0.5,    6.5,   0.00,   0.00, 1003.6,   98.8, -999.0
26-12-2022, 00:09:37,    230,    1.3,    6.6,   0.00,   0.00, 1003.6,   98.8, -999.0
26-12-2022, 00:09:47,    188,    1.8,    6.7,   0.00,   0.00, 1003.6,   98.9, -999.0
26-12-2022, 00:09:57,    189,    1.5,    6.7,   0.00,   0.00, 1003.6,   99.0, -999.0
26-12-2022, 00:10:07,    172,    1.2,    6.7,   0.00,   0.00, 1003.6,   99.0, -999.0
26-12-2022, 00:10:17,    168,    0.9,    6.7,   0.00,   0.00, 1003.6,   99.0, -999.0
26-12-2022, 00:10:27,    149,    0.9,    6.6,   0.00,   0.00, 1003.5,   98.9, -999.0
26-12-2022, 00:10:37,    151,    0.2,    6.7,   0.00,   0.00, 1003.5,   98.8, -999.0
26-12-2022, 00:10:47,    198,    0.3,    6.6,   0.00,   0.00, 1003.5,   98.8, -999.0
26-12-2022, 00:10:57,    198,    0.2,    6.7,   0.00,   0.00, 1003.5,   98.8, -999.0
26-12-2022, 00:11:07,    198,    0.2,    6.6,   0.00,   0.00, 1003.5,   98.9, -999.0
26-12-2022, 00:11:17,    203,    1.7,    6.7,   0.00,   0.00, 1003.6,   99.0, -999.0
26-12-2022, 00:11:27,    210,    0.7,    6.7,   0.00,   0.00, 1003.5,   98.9, -999.0
26-12-2022, 00:11:37,    199,    1.2,    6.7,   0.00,   0.00, 1003.6,   99.0, -999.0
26-12-2022, 00:11:47,    223,    2.1,    6.7,   0.00,   0.00, 1003.6,   99.0, -999.0
26-12-2022, 00:11:57,    175,    1.0,    6.7,   0.00,   0.00, 1003.5,   99.0, -999.0
26-12-2022, 00:12:07,    175,    0.2,    6.6,   0.00,   0.00, 1003.5,   98.9, -999.0
26-12-2022, 00:12:17,    178,    0.1,    6.6,   0.00,   0.00, 1003.5,   98.7, -999.0
26-12-2022, 00:12:27,    180,    0.3,    6.6,   0.00,   0.00, 1003.5,   98.9, -999.0
26-12-2022, 00:12:37,    182,    1.8,    6.7,   0.00,   0.00, 1003.5,   99.0, -999.0
26-12-2022, 00:12:47,    177,    1.2,    6.6,   0.00,   0.00, 1003.5,   99.1, -999.0
26-12-2022, 00:12:57,    137,    0.8,    6.6,   0.00,   0.00, 1003.5,   98.9, -999.0
26-12-2022, 00:13:07,    199,    0.3,    6.6,   0.00,   0.00, 1003.5,   98.8, -999.0
26-12-2022, 00:13:17,    214,    0.8,    6.7,   0.00,   0.00, 1003.5,   99.0, -999.0
26-12-2022, 00:13:27,    214,    0.5,    6.6,   0.00,   0.00, 1003.5,   99.0, -999.0
26-12-2022, 00:13:37,    251,    0.9,    6.6,   0.00,   0.00, 1003.5,   99.0, -999.0
26-12-2022, 00:13:47,    233,    0.3,    6.6,   0.00,   0.00, 1003.5,   98.9, -999.0
26-12-2022, 00:13:57,    186,    1.3,    6.6,   0.00,   0.00, 1003.5,   99.0, -999.0
26-12-2022, 00:14:06,    214,    0.8,    6.6,   0.00,   0.00, 1003.5,   99.0, -999.0
26-12-2022, 00:14:17,    207,    1.1,    6.7,   0.00,   0.00, 1003.5,   98.9, -999.0
26-12-2022, 00:14:27,    206,    0.4,    6.7,   0.00,   0.00, 1003.5,   98.9, -999.0
26-12-2022, 00:14:37,    206,    0.0,    6.6,   0.00,   0.00, 1003.4,   98.6, -999.0
26-12-2022, 00:14:46,    206,    0.0,    6.5,   0.00,   0.00, 1003.3,   98.6, -999.0
26-12-2022, 00:14:57,    215,    0.2,    6.6,   0.00,   0.00, 1003.4,   98.7, -999.0
26-12-2022, 00:15:07,    203,    1.2,    6.6,   0.00,   0.00, 1003.5,   99.0, -999.0
26-12-2022, 00:15:16,    199,    0.7,    6.7,   0.00,   0.00, 1003.5,   99.0, -999.0
26-12-2022, 00:15:26,    172,    1.3,    6.7,   0.00,   0.00, 1003.5,   99.0, -999.0
26-12-2022, 00:15:37,    202,    2.6,    6.7,   0.00,   0.00, 1003.5,   99.0, -999.0
26-12-2022, 00:15:46,    212,    2.8,    6.7,   0.00,   0.00, 1003.5,   98.9, -999.0
26-12-2022, 00:15:56,    195,    2.8,    6.7,   0.00,   0.00, 1003.5,   99.0, -999.0
26-12-2022, 00:16:07,    154,    2.8,    6.8,   0.00,   0.00, 1003.5,   99.0, -999.0
26-12-2022, 00:16:17,    160,    1.8,    6.8,   0.00,   0.00, 1003.5,   99.0, -999.0
26-12-2022, 00:16:26,    173,    0.4,    6.7,   0.00,   0.00, 1003.5,   98.9, -999.0
26-12-2022, 00:16:36,    191,    0.4,    6.8,   0.00,   0.00, 1003.5,   98.8, -999.0
26-12-2022, 00:16:47,    190,    0.7,    6.8,   0.00,   0.00, 1003.5,   99.0, -999.0
26-12-2022, 00:16:56,    206,    1.1,    6.7,   0.00,   0.00, 1003.4,   98.8, -999.0
26-12-2022, 00:17:06,    195,    1.7,    6.7,   0.00,   0.00, 1003.5,   99.0, -999.0
26-12-2022, 00:17:16,    193,    1.2,    6.8,   0.00,   0.00, 1003.5,   99.0, -999.0
26-12-2022, 00:17:26,    197,    0.8,    6.8,   0.00,   0.00, 1003.5,   99.0, -999.0
26-12-2022, 00:17:36,    197,    0.4,    6.8,   0.00,   0.00, 1003.5,   99.0, -999.0
26-12-2022, 00:17:46,    195,    0.1,    6.7,   0.00,   0.00, 1003.4,   98.9, -999.0
26-12-2022, 00:17:56,    195,    0.0,    6.6,   0.00,   0.00, 1003.3,   98.7, -999.0
26-12-2022, 00:18:06,    166,    0.5,    6.7,   0.00,   0.00, 1003.4,   98.8, -999.0
26-12-2022, 00:18:16,    154,    0.6,    6.8,   0.00,   0.00, 1003.4,   98.9, -999.0
26-12-2022, 00:18:26,    200,    0.6,    6.7,   0.00,   0.00, 1003.4,   99.0, -999.0
26-12-2022, 00:18:36,    200,    0.1,    6.7,   0.00,   0.00, 1003.3,   98.7, -999.0
26-12-2022, 00:18:46,    198,    0.8,    6.8,   0.00,   0.00, 1003.5,   99.0, -999.0
26-12-2022, 00:18:56,    188,    1.0,    6.8,   0.00,   0.00, 1003.4,   98.9, -999.0
26-12-2022, 00:19:06,    195,    1.8,    6.8,   0.00,   0.00, 1003.4,   98.9, -999.0
26-12-2022, 00:19:16,    194,    0.0,    6.7,   0.00,   0.00, 1003.2,   98.7, -999.0
26-12-2022, 00:19:26,    190,    0.2,    6.6,   0.00,   0.00, 1003.3,   98.8, -999.0
26-12-2022, 00:19:36,    159,    1.2,    6.7,   0.00,   0.00, 1003.5,   99.0, -999.0
26-12-2022, 00:19:46,    220,    0.4,    6.7,   0.00,   0.00, 1003.4,   98.8, -999.0
26-12-2022, 00:19:56,    203,    0.5,    6.8,   0.00,   0.00, 1003.5,   99.0, -999.0
26-12-2022, 00:20:06,    165,    1.1,    6.7,   0.00,   0.00, 1003.5,   99.0, -999.0
26-12-2022, 00:20:16,    161,    0.6,    6.7,   0.00,   0.00, 1003.4,   98.9, -999.0
26-12-2022, 00:20:26,    219,    2.7,    6.7,   0.00,   0.00, 1003.5,   99.0, -999.0
26-12-2022, 00:20:36,    215,    0.4,    6.7,   0.00,   0.00, 1003.5,   98.9, -999.0
26-12-2022, 00:20:46,    214,    0.5,    6.7,   0.00,   0.00, 1003.5,   99.0, -999.0
26-12-2022, 00:20:56,    172,    1.0,    6.7,   0.00,   0.00, 1003.5,   99.0, -999.0
26-12-2022, 00:21:06,    192,    0.8,    6.7,   0.00,   0.00, 1003.5,   99.0, -999.0
26-12-2022, 00:21:16,    188,    0.7,    6.7,   0.00,   0.00, 1003.5,   98.9, -999.0
26-12-2022, 00:21:26,    174,    0.6,    6.7,   0.00,   0.00, 1003.4,   99.0, -999.0
26-12-2022, 00:21:36,    173,    0.4,    6.7,   0.00,   0.00, 1003.4,   98.9, -999.0
26-12-2022, 00:21:46,    220,    1.2,    6.6,   0.00,   0.00, 1003.5,   99.0, -999.0
26-12-2022, 00:21:56,    219,    0.3,    6.7,   0.00,   0.00, 1003.4,   98.8, -999.0
26-12-2022, 00:22:06,    219,    0.0,    6.6,   0.00,   0.00, 1003.3,   98.6, -999.0
26-12-2022, 00:22:16,    202,    0.2,    6.6,   0.00,   0.00, 1003.3,   98.9, -999.0
26-12-2022, 00:22:26,    201,    0.1,    6.6,   0.00,   0.00, 1003.3,   98.7, -999.0
26-12-2022, 00:22:36,    204,    0.2,    6.7,   0.00,   0.00, 1003.3,   98.7, -999.0
26-12-2022, 00:22:46,    220,    0.9,    6.7,   0.00,   0.00, 1003.4,   99.0, -999.0
26-12-2022, 00:22:56,    206,    2.1,    6.6,   0.00,   0.00, 1003.4,   99.0, -999.0
26-12-2022, 00:23:05,    177,    0.7,    6.7,   0.00,   0.00, 1003.3,   98.9, -999.0
26-12-2022, 00:23:16,    194,    2.6,    6.7,   0.00,   0.00, 1003.4,   98.9, -999.0
26-12-2022, 00:23:26,    220,    2.5,    6.7,   0.00,   0.00, 1003.4,   98.9, -999.0
26-12-2022, 00:23:35,    220,    0.3,    6.7,   0.00,   0.00, 1003.4,   98.9, -999.0
26-12-2022, 00:23:46,    124,    1.6,    6.7,   0.00,   0.00, 1003.4,   99.0, -999.0
26-12-2022, 00:23:56,    184,    1.3,    6.6,   0.00,   0.00, 1003.4,   99.0, -999.0
26-12-2022, 00:24:06,    179,    1.4,    6.6,   0.00,   0.00, 1003.5,   99.0, -999.0
26-12-2022, 00:24:15,    160,    2.5,    6.7,   0.00,   0.00, 1003.5,   99.0, -999.0
26-12-2022, 00:24:26,    197,    1.8,    6.7,   0.00,   0.00, 1003.4,   99.0, -999.0
26-12-2022, 00:24:36,    148,    1.2,    6.7,   0.00,   0.00, 1003.4,   99.0, -999.0
26-12-2022, 00:24:45,    189,    0.6,    6.8,   0.00,   0.00, 1003.4,   98.9, -999.0
26-12-2022, 00:24:55,    218,    0.8,    6.7,   0.00,   0.00, 1003.5,   99.0, -999.0
26-12-2022, 00:25:06,    218,    0.4,    6.7,   0.00,   0.00, 1003.4,   98.9, -999.0
26-12-2022, 00:25:15,    196,    1.8,    6.7,   0.00,   0.00, 1003.5,   99.0, -999.0
26-12-2022, 00:25:25,    144,    2.5,    6.8,   0.00,   0.00, 1003.5,   99.0, -999.0
26-12-2022, 00:25:35,    200,    1.4,    6.8,   0.00,   0.00, 1003.4,   99.0, -999.0
26-12-2022, 00:25:46,    199,    0.1,    6.7,   0.00,   0.00, 1003.3,   98.7, -999.0
26-12-2022, 00:25:55,    141,    0.9,    6.7,   0.00,   0.00, 1003.4,   98.9, -999.0
26-12-2022, 00:26:05,    201,    1.6,    6.8,   0.00,   0.00, 1003.4,   99.0, -999.0
26-12-2022, 00:26:16,    200,    1.7,    6.8,   0.00,   0.00, 1003.4,   99.0, -999.0
26-12-2022, 00:26:25,    185,    1.2,    6.7,   0.00,   0.00, 1003.4,   99.0, -999.0
26-12-2022, 00:26:35,    185,    0.5,    6.8,   0.00,   0.00, 1003.4,   99.0, -999.0
26-12-2022, 00:26:45,    185,    0.4,    6.7,   0.00,   0.00, 1003.4,   98.7, -999.0
26-12-2022, 00:26:55,    188,    0.4,    6.7,   0.00,   0.00, 1003.4,   98.9, -999.0
26-12-2022, 00:27:05,    189,    0.1,    6.7,   0.00,   0.00, 1003.3,   98.7, -999.0
26-12-2022, 00:27:15,    188,    0.1,    6.7,   0.00,   0.00, 1003.3,   98.8, -999.0
26-12-2022, 00:27:25,    139,    2.3,    6.7,   0.00,   0.00, 1003.4,   98.9, -999.0
26-12-2022, 00:27:35,    154,    1.7,    6.8,   0.00,   0.00, 1003.4,   99.0, -999.0
26-12-2022, 00:27:45,    188,    1.6,    6.8,   0.00,   0.00, 1003.4,   99.0, -999.0
26-12-2022, 00:27:55,    163,    1.1,    6.8,   0.00,   0.00, 1003.4,   99.0, -999.0
26-12-2022, 00:28:05,    178,    3.4,    6.8,   0.00,   0.00, 1003.4,   99.0, -999.0
26-12-2022, 00:28:15,    166,    0.9,    6.8,   0.00,   0.00, 1003.4,   99.0, -999.0
26-12-2022, 00:28:25,    166,    1.5,    6.8,   0.00,   0.00, 1003.4,   99.0, -999.0
26-12-2022, 00:28:35,    168,    0.3,    6.8,   0.00,   0.00, 1003.4,   98.8, -999.0
26-12-2022, 00:28:45,    175,    1.9,    6.7,   0.00,   0.00, 1003.4,   99.0, -999.0
26-12-2022, 00:28:55,    210,    2.2,    6.7,   0.00,   0.00, 1003.4,   99.0, -999.0
26-12-2022, 00:29:05,    213,    2.5,    6.8,   0.00,   0.00, 1003.4,   99.0, -999.0
26-12-2022, 00:29:15,    145,    1.3,    6.8,   0.00,   0.00, 1003.4,   99.0, -999.0
26-12-2022, 00:29:25,    148,    0.5,    6.8,   0.00,   0.00, 1003.4,   99.0, -999.0
26-12-2022, 00:29:35,    200,    0.2,    6.7,   0.00,   0.00, 1003.3,   98.7, -999.0
26-12-2022, 00:29:45,    196,    2.8,    6.7,   0.00,   0.00, 1003.4,   99.0, -999.0
26-12-2022, 00:29:55,    203,    1.2,    6.8,   0.00,   0.00, 1003.4,   99.0, -999.0
26-12-2022, 00:30:05,    176,    1.1,    6.8,   0.00,   0.00, 1003.4,   99.0, -999.0
26-12-2022, 00:30:15,    179,    0.4,    6.8,   0.00,   0.00, 1003.3,   98.9, -999.0
26-12-2022, 00:30:25,    178,    0.0,    6.7,   0.00,   0.00, 1003.3,   98.7, -999.0
26-12-2022, 00:30:35,    184,    1.5,    6.7,   0.00,   0.00, 1003.3,   98.9, -999.0
26-12-2022, 00:30:45,    191,    0.5,    6.7,   0.00,   0.00, 1003.3,   99.0, -999.0
26-12-2022, 00:30:55,    190,    0.2,    6.7,   0.00,   0.00, 1003.3,   99.0, -999.0
26-12-2022, 00:31:05,    190,    0.0,    6.6,   0.00,   0.00, 1003.2,   98.6, -999.0
26-12-2022, 00:31:15,    195,    0.7,    6.7,   0.00,   0.00, 1003.3,   99.0, -999.0
26-12-2022, 00:31:25,    194,    1.3,    6.7,   0.00,   0.00, 1003.3,   99.0, -999.0
26-12-2022, 00:31:35,    211,    1.5,    6.7,   0.00,   0.00, 1003.3,   99.0, -999.0
26-12-2022, 00:31:45,    158,    2.4,    6.8,   0.00,   0.00, 1003.3,   99.0, -999.0
26-12-2022, 00:31:54,    195,    1.7,    6.7,   0.00,   0.00, 1003.3,   99.0, -999.0
26-12-2022, 00:32:05,    197,    0.5,    6.7,   0.00,   0.00, 1003.3,   99.0, -999.0
26-12-2022, 00:32:15,    200,    0.2,    6.7,   0.00,   0.00, 1003.2,   98.8, -999.0
26-12-2022, 00:32:25,    199,    0.0,    6.5,   0.00,   0.00, 1003.1,   98.6, -999.0
26-12-2022, 00:32:34,    199,    0.3,    6.6,   0.00,   0.00, 1003.2,   98.9, -999.0
26-12-2022, 00:32:45,    199,    0.3,    6.7,   0.00,   0.00, 1003.3,   99.0, -999.0
26-12-2022, 00:32:55,    149,    1.4,    6.7,   0.00,   0.00, 1003.2,   99.0, -999.0
26-12-2022, 00:33:04,    206,    0.7,    6.6,   0.00,   0.00, 1003.2,   98.8, -999.0
26-12-2022, 00:33:15,    185,    1.3,    6.6,   0.00,   0.00, 1003.2,   99.0, -999.0
26-12-2022, 00:33:25,    186,    0.0,    6.6,   0.00,   0.00, 1003.1,   98.6, -999.0
26-12-2022, 00:33:34,    228,    0.5,    6.6,   0.00,   0.00, 1003.2,   98.9, -999.0
26-12-2022, 00:33:44,    233,    1.3,    6.5,   0.00,   0.00, 1003.3,   99.0, -999.0
26-12-2022, 00:33:55,    148,    1.7,    6.7,   0.00,   0.00, 1003.3,   99.0, -999.0
26-12-2022, 00:34:05,    119,    0.6,    6.6,   0.00,   0.00, 1003.2,   98.8, -999.0
26-12-2022, 00:34:14,    193,    0.4,    6.7,   0.00,   0.00, 1003.2,   98.9, -999.0
26-12-2022, 00:34:24,    199,    1.1,    6.7,   0.00,   0.00, 1003.1,   98.9, -999.0
26-12-2022, 00:34:35,    170,    3.3,    6.7,   0.00,   0.00, 1003.2,   99.0, -999.0
26-12-2022, 00:34:44,    211,    2.9,    6.7,   0.00,   0.00, 1003.2,   99.0, -999.0
26-12-2022, 00:34:54,    140,    3.1,    6.7,   0.00,   0.00, 1003.2,   99.0, -999.0
26-12-2022, 00:35:04,    201,    1.5,    6.7,   0.00,   0.00, 1003.2,   99.0, -999.0
26-12-2022, 00:35:14,    226,    1.2,    6.7,   0.00,   0.00, 1003.2,   99.0, -999.0
26-12-2022, 00:35:24,    210,    0.8,    6.7,   0.00,   0.00, 1003.2,   98.9, -999.0
26-12-2022, 00:35:34,    210,    0.0,    6.7,   0.00,   0.00, 1003.1,   98.6, -999.0
26-12-2022, 00:35:44,    197,    0.9,    6.7,   0.00,   0.00, 1003.1,   98.9, -999.0
26-12-2022, 00:35:54,    197,    1.0,    6.8,   0.00,   0.00, 1003.2,   99.0, -999.0
26-12-2022, 00:36:04,    199,    0.7,    6.8,   0.00,   0.00, 1003.2,   98.9, -999.0
26-12-2022, 00:36:14,    190,    1.8,    6.8,   0.00,   0.00, 1003.2,   99.0, -999.0
26-12-2022, 00:36:24,    194,    3.1,    6.7,   0.00,   0.00, 1003.2,   99.0, -999.0
26-12-2022, 00:36:34,    156,    1.1,    6.7,   0.00,   0.00, 1003.2,   99.0, -999.0
26-12-2022, 00:36:44,    201,    2.5,    6.8,   0.00,   0.00, 1003.2,   99.0, -999.0
26-12-2022, 00:36:54,    174,    1.5,    6.8,   0.00,   0.00, 1003.2,   99.0, -999.0
26-12-2022, 00:37:04,    207,    2.9,    6.8,   0.00,   0.00, 1003.2,   99.0, -999.0
26-12-2022, 00:37:14,    168,    4.7,    6.8,   0.00,   0.00, 1003.2,   99.0, -999.0
26-12-2022, 00:37:24,    189,    2.9,    6.7,   0.00,   0.00, 1003.2,   99.0, -999.0
26-12-2022, 00:37:34,    196,    1.8,    6.8,   0.00,   0.00, 1003.1,   99.0, -999.0
26-12-2022, 00:37:44,    224,    2.5,    6.8,   0.00,   0.00, 1003.2,   98.9, -999.0
26-12-2022, 00:37:54,    204,    2.2,    6.8,   0.00,   0.00, 1003.2,   98.6, -999.0
26-12-2022, 00:38:04,    212,    4.5,    6.8,   0.00,   0.00, 1003.2,   98.0, -999.0
26-12-2022, 00:38:14,    155,    3.8,    6.8,   0.00,   0.00, 1003.2,   97.7, -999.0
26-12-2022, 00:38:24,    225,    1.6,    6.9,   0.00,   0.00, 1003.2,   96.7, -999.0
26-12-2022, 00:38:34,    247,    1.0,    6.9,   0.00,   0.00, 1003.1,   95.4, -999.0
26-12-2022, 00:38:44,    205,    0.2,    6.8,   0.00,   0.00, 1003.1,   94.5, -999.0
26-12-2022, 00:38:54,    205,    0.0,    6.7,   0.00,   0.00, 1003.0,   93.6, -999.0
26-12-2022, 00:39:04,    166,    1.1,    6.8,   0.00,   0.00, 1003.1,   93.5, -999.0
26-12-2022, 00:39:14,    213,    1.1,    6.8,   0.00,   0.00, 1003.1,   93.2, -999.0
26-12-2022, 00:39:24,    213,    0.4,    6.8,   0.00,   0.00, 1003.1,   92.8, -999.0
26-12-2022, 00:39:34,    207,    1.1,    6.8,   0.00,   0.00, 1003.2,   92.9, -999.0
26-12-2022, 00:39:44,    201,    3.2,    6.8,   0.00,   0.00, 1003.2,   93.0, -999.0
26-12-2022, 00:39:54,    155,    3.3,    6.8,   0.00,   0.00, 1003.2,   93.1, -999.0
26-12-2022, 00:40:04,    196,    2.3,    6.9,   0.00,   0.00, 1003.2,   93.0, -999.0
26-12-2022, 00:40:14,    166,    3.1,    6.9,   0.00,   0.00, 1003.2,   92.4, -999.0
26-12-2022, 00:40:24,    217,    1.6,    6.9,   0.00,   0.00, 1003.1,   91.9, -999.0
26-12-2022, 00:40:34,    230,    2.5,    6.9,   0.00,   0.00, 1003.2,   91.4, -999.0
26-12-2022, 00:40:44,    151,    0.6,    6.9,   0.00,   0.00, 1003.2,   91.2, -999.0
26-12-2022, 00:40:54,    232,    1.8,    6.9,   0.00,   0.00, 1003.2,   91.2, -999.0
26-12-2022, 00:41:04,    205,    1.6,    6.8,   0.00,   0.00, 1003.2,   90.9, -999.0
26-12-2022, 00:41:14,    232,    3.1,    6.9,   0.00,   0.00, 1003.2,   90.9, -999.0
26-12-2022, 00:41:23,    212,    1.1,    6.9,   0.00,   0.00, 1003.2,   90.8, -999.0
26-12-2022, 00:41:34,    208,    0.7,    6.8,   0.00,   0.00, 1003.2,   90.6, -999.0
26-12-2022, 00:41:44,    209,    1.7,    6.9,   0.00,   0.00, 1003.2,   90.4, -999.0
26-12-2022, 00:41:54,    161,    1.2,    6.9,   0.00,   0.00, 1003.2,   90.3, -999.0
26-12-2022, 00:42:03,    208,    1.6,    6.9,   0.00,   0.00, 1003.2,   90.2, -999.0
26-12-2022, 00:42:14,    225,    2.0,    6.9,   0.00,   0.00, 1003.2,   89.9, -999.0
26-12-2022, 00:42:24,    220,    2.0,    6.9,   0.00,   0.00, 1003.1,   89.8, -999.0
26-12-2022, 00:42:33,    188,    0.9,    6.8,   0.00,   0.00, 1003.2,   89.5, -999.0
26-12-2022, 00:42:43,    191,    0.7,    6.8,   0.00,   0.00, 1003.2,   89.6, -999.0
26-12-2022, 00:42:54,    177,    2.2,    6.9,   0.00,   0.00, 1003.2,   89.4, -999.0
26-12-2022, 00:43:03,    212,    2.4,    7.0,   0.00,   0.00, 1003.2,   89.3, -999.0
26-12-2022, 00:43:13,    260,    2.5,    7.0,   0.00,   0.00, 1003.2,   89.2, -999.0
26-12-2022, 00:43:23,    179,    1.6,    7.0,   0.00,   0.00, 1003.2,   88.8, -999.0
26-12-2022, 00:43:34,    185,    1.4,    6.9,   0.00,   0.00, 1003.2,   88.8, -999.0
26-12-2022, 00:43:43,    176,    3.7,    7.0,   0.00,   0.00, 1003.2,   88.6, -999.0
26-12-2022, 00:43:53,    207,    1.8,    6.9,   0.00,   0.00, 1003.2,   88.4, -999.0
26-12-2022, 00:44:04,    193,    1.2,    6.9,   0.00,   0.00, 1003.2,   88.2, -999.0
26-12-2022, 00:44:14,    214,    3.6,    6.9,   0.00,   0.00, 1003.2,   88.2, -999.0
26-12-2022, 00:44:23,    208,    3.4,    7.0,   0.00,   0.00, 1003.2,   88.1, -999.0
26-12-2022, 00:44:33,    201,    3.1,    6.9,   0.00,   0.00, 1003.2,   88.0, -999.0
26-12-2022, 00:44:43,    208,    1.5,    7.0,   0.00,   0.00, 1003.2,   87.9, -999.0
26-12-2022, 00:44:53,    198,    2.8,    6.9,   0.00,   0.00, 1003.2,   87.8, -999.0
26-12-2022, 00:45:03,    208,    2.9,    6.9,   0.00,   0.00, 1003.2,   87.8, -999.0
26-12-2022, 00:45:13,    193,    1.9,    6.9,   0.00,   0.00, 1003.2,   87.8, -999.0
26-12-2022, 00:45:23,    219,    4.4,    7.0,   0.00,   0.00, 1003.2,   87.8, -999.0
26-12-2022, 00:45:33,    182,    1.5,    7.0,   0.00,   0.00, 1003.2,   87.8, -999.0
26-12-2022, 00:45:43,    182,    0.6,    6.9,   0.00,   0.00, 1003.1,   87.7, -999.0
26-12-2022, 00:45:53,    180,    3.8,    6.9,   0.00,   0.00, 1003.2,   87.7, -999.0
26-12-2022, 00:46:03,    206,    2.8,    6.9,   0.00,   0.00, 1003.2,   87.6, -999.0
26-12-2022, 00:46:13,    190,    2.9,    7.0,   0.00,   0.00, 1003.2,   87.5, -999.0
26-12-2022, 00:46:23,    169,    1.1,    7.0,   0.00,   0.00, 1003.2,   87.3, -999.0
26-12-2022, 00:46:33,    199,    2.4,    6.9,   0.00,   0.00, 1003.1,   87.2, -999.0
26-12-2022, 00:46:43,    172,    3.0,    7.0,   0.00,   0.00, 1003.2,   87.2, -999.0
26-12-2022, 00:46:53,    213,    1.8,    7.0,   0.00,   0.00, 1003.2,   87.2, -999.0